STARLINK-36542, 67445

Orbit data source: Space-Track

STARLINK-36542, 67445 is a payload satellite owned by SpaceX/Seattle (US) in LEO that was launched on Wed, 14 Jan 2026 UTC via an FALCON 9 launch vehicle from the Air Force Eastern Test Range (AFETR). Payload-class satellites include a variety of spacecraft equipped with specific instruments for various scientific and technological missions. These include communications satellites like Starlink; space stations such as the ISS; scientific satellites like the Hubble; Earth observation satellites from companies like Planet Labs, Umbra, and HawkEye 360; GPS; miniature CubeSats for education and research; and military/defense satellites.

Loading next visibility...
Identifier
67445, 2026-008A
Orbit
LEO
Country
Flag of USUS
Related business
Manufacturer
SpaceX/Seattle
Mission
Operational spacecraft
Bus & Motor
STARLINK V2MO, Unknown motor
Mass
575 kg wet, ~530 kg dry
Launch date (UTC)
2026-01-14 (4 weeks ago)
Launch vehicle
FALCON 9
Launch site
Air Force Eastern Test Range (AFETR)
Object type
Payload
Rocket body
Debris
Shape & HBR
Unknown shape, 17.7 m
Radar Cross Section
RCS unknown

Expand to show TLE details & history
Last TLE update: 10 hours ago

TLE from 10 hours ago
0 STARLINK-36542
1 67445U 26008A   26039.91670139  .00075876  00000-0  12901-2 0  9996
2 67445  43.0006   9.0851 0000610 246.8406 202.8930 15.50505024  5175
Epoch: 2026-02-08T22:00Z
TLE epoch observation values (Epoch: 2026-02-08T22:00:03.000Z)
Latitude
43.15971°
Longitude
-10.31478°
Altitude
418.767 km
Speed
7.666 km/s
True Right ascension
06h 34m 52s
True Declination
42° 58' 46"
Sunlit
Object was in full shadow at epoch
Visualization orbit readout
Latitude
Unknown
Longitude
Unknown
Altitude
Unknown
Speed
Unknown
Apparent Right ascension
Unknown
Apparent Declination
Unknown
Sunlit
N/A
Visualization observer readout
Local Sidereal Time
10:03:23
Azimuth
Unknown
Elevation
Unknown
Doppler factor
Unknown
Orbital elements
Apogee altitude
417.629 km
Perigee altitude
416.8 km
Semi-major axis
6,795.352 km
Eccentricity
0.00006
Inclination
43.0006°
RAAN
9.0851°
Arg. of periapsis
246.8406°
True anomaly
202.89028°
Mean anomaly
202.893°
Eccentric anomaly
202.89164°
Mean motion
3.87459 °/min
Orbital period
92.91 mins
BSTAR
0.0012901
Loading maneuver chart data...
Computing Atmospheric mass density...
Loading historical data...
Loading historical data...
Loading historical data...
Loading historical data...
Loading historical data...
Loading historical data...
Loading historical data...

Documentation

Showing up to 5 results
|